Weather History for KAWM - October, 2013

Change the Weather History Date:

Wednesday, October 16, 2013

  Actual Average Record
Temperature  
Mean Temperature 60 °F -  
Max Temperature 66 °F 76 °F 88 °F (1964)
Min Temperature 55 °F 52 °F 35 °F (1991)
Degree Days  
Heating Degree Days 4    
Growing Degree Days 10 (Base 50)    
Moisture  
Dew Point 58 °F    
Average Humidity 90    
Maximum Humidity 97    
Minimum Humidity 75    
Precipitation  
Precipitation 0.38 in - - ()
Sea Level Pressure  
Sea Level Pressure 29.98 in    
Wind  
Wind Speed 6 mph (North)    
Max Wind Speed 16 mph    
Max Gust Speed 21 mph    
Visibility 9 miles    
Events Rain    
Averages and records for this station are not official NWS values.
T = Trace of Precipitation, MM = Missing Value Source: NWS Daily Summary

Daily Weather History Graph

Daily Weather History Graph

Search for Another Location

Airport or City:

Trip Planner

Search our weather history database for the weather conditions in past years. The results will help you decide how hot, cold, wet, or windy it might be!

Date:

Astronomy

Oct. 16, 2013 Rise Set
Actual Time 7:08 AM CDT 6:24 PM CDT
Civil Twilight 6:42 AM CDT 6:49 PM CDT
Nautical Twilight 6:12 AM CDT 7:19 PM CDT
Astronomical Twilight 5:43 AM CDT 7:48 PM CDT
Moon 5:00 PM CDT (10/16) 4:40 AM CDT (10/16)
Length of Visible Light 12h 07m
Length of Day
11h 16m
Waxing Gibbous, 94% of the Moon is Illuminated
Oct 16
Waxing Gibbous
Oct 18
Full
Oct 26
Last Quarter
Nov 3
New
Nov 9
First Quarter

Hourly Weather History & Observations

Time (CDT) Temp. Dew Point Humidity Pressure Visibility Wind Dir Wind Speed Gust Speed Precip Events Conditions
12:53 AM 66.9 °F 66.0 °F 97% 29.94 in 7.0 mi Calm Calm - 0.01 in Rain Light Rain
1:53 AM 66.9 °F 66.0 °F 97% 29.96 in 4.0 mi NW 3.5 mph - 0.00 in Rain Light Rain
2:44 AM 66.2 °F 64.4 °F 94% 29.97 in 8.0 mi Variable 5.8 mph - 0.02 in Rain Light Rain
2:53 AM 66.9 °F 64.9 °F 93% 29.96 in 9.0 mi NNW 4.6 mph - 0.02 in Rain Light Rain
3:02 AM 66.2 °F 64.4 °F 94% 29.96 in 9.0 mi NNW 4.6 mph - 0.00 in Rain Light Rain
3:32 AM 64.4 °F 62.6 °F 94% 29.96 in 10.0 mi NNW 5.8 mph - 0.01 in Rain Light Rain
3:53 AM 64.0 °F 63.0 °F 96% 29.96 in 6.0 mi NNW 5.8 mph - 0.04 in Rain Light Rain
4:15 AM 64.4 °F 62.6 °F 94% 29.97 in 6.0 mi North 6.9 mph - 0.05 in Rain Rain
4:53 AM 62.1 °F 60.1 °F 93% 29.96 in 8.0 mi North 8.1 mph 16.1 mph 0.11 in Rain Light Rain
4:56 AM 62.6 °F 60.8 °F 94% 29.97 in 8.0 mi North 10.4 mph - 0.01 in Rain Light Rain
5:10 AM 60.8 °F 59.0 °F 94% 29.98 in 8.0 mi NNW 5.8 mph - 0.04 in Rain Rain
5:53 AM 60.1 °F 59.0 °F 96% 29.96 in 10.0 mi North 12.7 mph - 0.11 in Rain Light Rain
6:22 AM 57.2 °F 55.4 °F 94% 29.96 in 10.0 mi NNE 16.1 mph 20.7 mph 0.01 in Rain Light Rain
6:43 AM 57.2 °F 55.4 °F 94% 29.97 in 10.0 mi North 13.8 mph - 0.02 in Rain Light Rain
6:53 AM 57.0 °F 55.0 °F 93% 29.97 in 10.0 mi North 12.7 mph 20.7 mph 0.03 in Rain Light Rain
7:22 AM 55.4 °F - N/A% 29.99 in 10.0 mi North 11.5 mph 20.7 mph 0.00 in   Overcast
7:53 AM 55.9 °F - N/A% 30.01 in 10.0 mi North 11.5 mph - 0.00 in Rain Light Rain
8:53 AM 55.9 °F - N/A% 30.01 in 10.0 mi North 11.5 mph 17.3 mph 0.02 in Rain Light Rain
9:53 AM 57.0 °F - N/A% 30.03 in 10.0 mi NNE 8.1 mph - 0.01 in Rain Light Rain
10:06 AM 57.2 °F - N/A% 30.04 in 10.0 mi NNE 11.5 mph - 0.01 in Rain Light Rain
10:53 AM 57.0 °F - N/A% 30.02 in 10.0 mi NNE 9.2 mph - 0.03 in   Overcast
11:53 AM 57.9 °F - N/A% 30.02 in 10.0 mi North 4.6 mph - N/A   Overcast
12:53 PM 60.1 °F - N/A% 30.01 in 10.0 mi North 8.1 mph - N/A   Overcast
1:28 PM 60.8 °F - N/A% 30.00 in 10.0 mi North 8.1 mph - N/A   Overcast
1:53 PM 60.1 °F 57.9 °F 93% 29.98 in 10.0 mi North 8.1 mph - N/A   Overcast
2:53 PM 60.1 °F 55.0 °F 83% 29.98 in 10.0 mi North 6.9 mph - N/A   Overcast
3:37 PM 60.8 °F 53.6 °F 77% 29.98 in 10.0 mi North 6.9 mph - N/A   Overcast
3:53 PM 61.0 °F 54.0 °F 78% 29.97 in 10.0 mi NNE 5.8 mph - N/A   Overcast
4:53 PM 62.1 °F 54.0 °F 75% 29.96 in 10.0 mi NNE 3.5 mph - N/A   Overcast
5:53 PM 61.0 °F 54.0 °F 78% 29.96 in 10.0 mi North 3.5 mph - N/A   Scattered Clouds
6:53 PM 59.0 °F 55.9 °F 90% 29.97 in 10.0 mi Calm Calm - N/A   Overcast
7:53 PM 57.9 °F 55.9 °F 93% 29.97 in 10.0 mi Calm Calm - N/A   Overcast
8:53 PM 57.9 °F 54.0 °F 87% 29.99 in 10.0 mi NW 3.5 mph - N/A   Overcast
9:53 PM 57.0 °F 54.0 °F 89% 29.99 in 10.0 mi Calm Calm - N/A   Partly Cloudy
10:53 PM 57.0 °F 54.0 °F 89% 29.99 in 10.0 mi Calm Calm - N/A   Overcast
11:53 PM 57.9 °F 55.0 °F 90% 29.97 in 10.0 mi Calm Calm - N/A   Overcast